Location: Wingville
(42.9917°N, 90.4915°W)
Time: 00:57:38
(UTC+00:00)

UWE-3 - Pass Details

Date: 04 July 2022
Orbit: 583 x 677 km, 97.7° (Epoch: 16 August)

Event Time Altitude Azimuth Distance (km) Brightness Sun altitude
Rises 09:43:39 0° 9° (N) 2,908 ? -7.4°
Reaches altitude 10° 09:45:50 10° 6° (N) 2,012 ? -7.1°
Maximum altitude 09:50:10 64° 286° (WNW) 711 ? -6.5°
Drops below altitude 10° 09:54:37 10° 205° (SSW) 2,054 ? -5.8°
Enters shadow 09:56:04 - 203° (SSW) 2,651 ? -5.6°
